This is the latest recevied weather packets stored in our database for station/object CQ0XCR-11. If no packets are shown the sender has not sent any weather packets the latest 1 day(s).
| Time | Temp. | Humidity | Pressure | Rain* | Wind** | Luminosity | Snow |
|---|---|---|---|---|---|---|---|
| 1778022960 | -2.78° C | - | 6550.2 hPa | 0 mm | 0.45 m/s, 36° | - | - |
| 1778022836 | -2.78° C | - | 6550.2 hPa | 0 mm | 0.89 m/s, 70° | - | - |
| 1778022712 | -2.78° C | - | 6550.2 hPa | 0 mm | 0.45 m/s, 49° | - | - |
| 1778022588 | -2.78° C | - | 6550.2 hPa | 0 mm | 1.34 m/s, 63° | - | - |
| 1778022464 | -2.78° C | - | 6550.2 hPa | 0 mm | 0.89 m/s, 67° | - | - |
| 1778022216 | -2.78° C | - | 6550.2 hPa | 0 mm | 0.45 m/s, 45° | - | - |
| 1778022092 | -2.78° C | - | 6550.2 hPa | 0 mm | 1.79 m/s, 76° | - | - |
| 1778021969 | -2.78° C | - | 6550.2 hPa | 0 mm | 0.89 m/s, 63° | - | - |
| 1778021720 | -2.78° C | - | 6550.2 hPa | 0 mm | 0.45 m/s, 46° | - | - |
| 1778021596 | -2.78° C | - | 6550.2 hPa | 0 mm | 0.45 m/s, 90° | - | - |
| 1778021473 | -2.78° C | - | 6550.2 hPa | 0 mm | 0 m/s | - | - |
| 1778021349 | -2.78° C | - | 6550.2 hPa | 0 mm | 0 m/s | - | - |
| 1778021224 | -2.78° C | - | 6550.2 hPa | 0 mm | 0 m/s | - | - |
| 1778021100 | -2.78° C | - | 6550.2 hPa | 0 mm | 0.45 m/s, 58° | - | - |
| 1778020977 | -2.78° C | - | 6550.2 hPa | 0 mm | 0.45 m/s, 89° | - | - |
| 1778020852 | -2.78° C | - | 6550.2 hPa | 0 mm | 0.45 m/s, 74° | - | - |
| 1778020728 | -2.78° C | - | 6550.2 hPa | 0 mm | 0.45 m/s, 101° | - | - |
| 1778020604 | -2.78° C | - | 6550.2 hPa | 0 mm | 0 m/s | - | - |
| 1778020480 | -2.78° C | - | 6550.2 hPa | 0 mm | 0.45 m/s, 125° | - | - |
| 1778020356 | -2.78° C | - | 6550.2 hPa | 0 mm | 0.89 m/s, 140° | - | - |
| 1778020233 | -2.78° C | - | 6550.2 hPa | 0 mm | 0 m/s | - | - |
| 1778020108 | -2.78° C | - | 6550.2 hPa | 0 mm | 0.45 m/s, 135° | - | - |
| 1778019984 | -2.78° C | - | 6550.2 hPa | 0 mm | 0.45 m/s, 90° | - | - |
| 1778019860 | -2.78° C | - | 6550.2 hPa | 0 mm | 0 m/s | - | - |
| 1778019736 | -2.78° C | - | 6550.2 hPa | 0 mm | 0 m/s | - | - |
* Rain since midnight (hover to see other rain measurements)
** Current wind speed in m/s (hover to see current wind gust speed)